Tracking 31027 objects as of 19-Jul-2025
HD Live streaming from Space Station
objects crossing your sky now

STARLINK-4614

Track STARLINK-4614 now!
10-day predictions
STARLINK-4614 is classified as:


NORAD ID: 53741
Int'l Code: 2022-107AT
Perigee: 283.4 km
Apogee: 285.2 km
Inclination: 53.2 °
Period: 90.1 minutes
Semi major axis: 6655 km
RCS: Unknown
Launch date: September 5, 2022
Source: United States (US)
Launch site: AIR FORCE EASTERN TEST RANGE (AFETR)
Your satellite tracking list
DEWASAT-2
Track 1 satellite(s)




NASA's NSSDC Master Catalog

Two Line Element Set (TLE):
1 53741U 22107AT  25199.40876898  .01241568  80090-3  25329-2 0  9998
2 53741  53.2143 195.9399 0001398  89.6853  63.1251 15.99012951159000
Source of the keplerian elements: AFSPC